| time (UTC) | temp F | wind direction | speed MPH | gust MPH | rain 1hr in | rain 24hr in | rain mn in | humidity % | barometer mb |
| 20260901110018 | 56 | 0.0 | 0.0 | 0.00 | 0.02 | 0.00 | 85 | 1017.6 | |
| 20260901103017 | 56 | 0.0 | 0.0 | 0.00 | 0.02 | 0.00 | 82 | 1018.3 | |
| 20260901100017 | 56 | 0.0 | 0.0 | 0.00 | 0.02 | 0.00 | 80 | 1018.6 | |
| 20260901093017 | 57 | 0.0 | 0.0 | 0.00 | 0.02 | 0.00 | 77 | 1018.8 | |
| 20260901090017 | 57 | 0.0 | 4.0 | 0.00 | 0.02 | 0.00 | 77 | 1019.1 | |
| 20260901083017 | 56 | 0.0 | 1.0 | 0.00 | 0.02 | 0.00 | 80 | 1019.0 | |
| 20260901080017 | 57 | 0.0 | 0.0 | 0.00 | 0.02 | 0.00 | 82 | 1019.4 | |
| 20260901073057 | 58 | 0.0 | 0.0 | 0.00 | 0.02 | 0.00 | 80 | 1019.2 | |
| 20260901070057 | 59 | 0.0 | 3.0 | 0.00 | 0.02 | 0.00 | 78 | 1018.9 | |
| 20260901063017 | 60 | 0.0 | 5.0 | 0.00 | 0.02 | 0.00 | 73 | 1019.0 | |
| 20260901060057 | 60 | 0.0 | 0.0 | 0.00 | 0.02 | 0.02 | 71 | 1018.7 | |
| 20260901053016 | 62 | 158 | 1.0 | 8.0 | 0.00 | 0.02 | 0.02 | 68 | 1018.8 |
| 20260901050056 | 61 | 113 | 4.0 | 12.0 | 0.00 | 0.02 | 0.02 | 67 | 1018.5 |
| 20260901043056 | 59 | 113 | 2.0 | 11.0 | 0.00 | 0.02 | 0.02 | 77 | 1018.5 |
| 20260901040016 | 59 | 0.0 | 4.0 | 0.00 | 0.02 | 0.02 | 85 | 1018.8 | |
| 20260901033018 | 59 | 0.0 | 4.0 | 0.00 | 0.02 | 0.02 | 85 | 1018.0 | |
| 20260901030017 | 59 | 0.0 | 3.0 | 0.00 | 0.02 | 0.02 | 85 | 1016.9 | |
| 20260901023057 | 59 | 0.0 | 6.0 | 0.00 | 0.02 | 0.02 | 85 | 1015.9 | |
| 20260901020017 | 59 | 0.0 | 6.0 | 0.00 | 0.02 | 0.02 | 87 | 1016.4 | |
| 20260901013017 | 60 | 158 | 1.0 | 7.0 | 0.02 | 0.02 | 0.02 | 86 | 1017.1 |
| 20260901010017 | 60 | 158 | 2.0 | 12.0 | 0.02 | 0.02 | 0.02 | 82 | 1018.5 |
| 20260901003017 | 63 | 180 | 6.0 | 14.0 | 0.00 | 0.00 | 0.00 | 73 | 1019.0 |
| 20260901000017 | 65 | 180 | 6.0 | 18.0 | 0.00 | 0.00 | 0.00 | 65 | 1019.3 |
| 20260831233017 | 67 | 158 | 9.0 | 23.0 | 0.00 | 0.00 | 0.00 | 58 | 1019.3 |
| 20260831230017 | 73 | 180 | 8.0 | 24.0 | 0.00 | 0.00 | 0.00 | 47 | 1017.8 |
| 20260831223057 | 77 | 180 | 6.0 | 21.0 | 0.00 | 0.00 | 0.00 | 42 | 1015.7 |
| 20260831220017 | 79 | 180 | 3.0 | 13.0 | 0.00 | 0.00 | 0.00 | 38 | 1015.4 |
| 20260831213017 | 81 | 180 | 3.0 | 12.0 | 0.00 | 0.00 | 0.00 | 37 | 1016.1 |
| 20260831210057 | 81 | 180 | 3.0 | 11.0 | 0.00 | 0.00 | 0.00 | 38 | 1016.3 |
| 20260831203016 | 81 | 180 | 3.0 | 11.0 | 0.00 | 0.00 | 0.00 | 36 | 1016.8 |
| 20260831200056 | 81 | 180 | 3.0 | 11.0 | 0.00 | 0.00 | 0.00 | 36 | 1016.9 |
| 20260831193016 | 78 | 180 | 1.0 | 6.0 | 0.00 | 0.00 | 0.00 | 47 | 1017.4 |
| 20260831190016 | 76 | 0.0 | 1.0 | 0.00 | 0.01 | 0.00 | 60 | 1017.5 | |
| 20260831183017 | 74 | 0.0 | 1.0 | 0.00 | 0.01 | 0.00 | 61 | 1018.0 | |
| 20260831180016 | 73 | 0.0 | 5.0 | 0.00 | 0.01 | 0.00 | 59 | 1018.4 | |
| 20260831173016 | 72 | 0.0 | 1.0 | 0.00 | 0.01 | 0.00 | 60 | 1018.5 | |
| 20260831170016 | 71 | 0.0 | 0.0 | 0.00 | 0.01 | 0.00 | 63 | 1018.4 | |
| 20260831163016 | 69 | 0.0 | 0.0 | 0.00 | 0.01 | 0.00 | 64 | 1018.5 | |
| 20260831160016 | 67 | 0.0 | 0.0 | 0.00 | 0.01 | 0.00 | 66 | 1017.8 | |
| 20260831153016 | 65 | 0.0 | 0.0 | 0.00 | 0.01 | 0.00 | 70 | 1017.2 | |
| 20260831150016 | 62 | 0.0 | 0.0 | 0.00 | 0.01 | 0.00 | 75 | 1017.3 | |
| 20260831143016 | 60 | 0.0 | 0.0 | 0.00 | 0.01 | 0.00 | 76 | 1017.3 | |
| 20260831140016 | 60 | 0.0 | 1.0 | 0.00 | 0.01 | 0.00 | 76 | 1017.6 | |
| 20260831133016 | 59 | 0.0 | 0.0 | 0.00 | 0.10 | 0.00 | 74 | 1017.3 | |
| 20260831130016 | 60 | 0.0 | 0.0 | 0.00 | 0.11 | 0.00 | 73 | 1017.6 | |
| 20260831123056 | 60 | 0.0 | 0.0 | 0.00 | 0.11 | 0.00 | 74 | 1017.5 | |
| 20260831120015 | 61 | 0.0 | 0.0 | 0.00 | 0.11 | 0.00 | 76 | 1017.6 | |
| 20260831113016 | 61 | 0.0 | 5.0 | 0.00 | 0.11 | 0.00 | 71 | 1018.1 |